Weather History for Pine Bluff, AR

Change the Weather History Date:

Tuesday, June 3, 2014

  Actual Average Record
Temperature  
Mean Temperature 80 °F 76 °F  
Max Temperature 90 °F 87 °F 100 °F (1911)
Min Temperature 69 °F 66 °F 49 °F (1956)
Degree Days  
Heating Degree Days 0 0  
Month to date heating degree days 0 0  
Since 1 June heating degree days 0 0  
Since 1 July heating degree days 3453 2881  
Cooling Degree Days 15 11  
Month to date cooling degree days 41 33  
Year to date cooling degree days 304 340  
Since 1 June cooling degree days 41 33  
Growing Degree Days 30 (Base 50)    
Moisture  
Dew Point 70 °F    
Average Humidity 75    
Maximum Humidity 97    
Minimum Humidity 52    
Precipitation  
Precipitation 0.00 in 0.14 in 2.40 in (1917)
Month to date precipitation T 0.42  
Year to date precipitation 22.27 23.62  
Snow  
Snow 0.00 in 0.00 in - ()
Month to date snowfall 0.0 0.0  
Since 1 June snowfall 0.0 0.0  
Since 1 July snowfall 3.7 3.1  
Snow Depth 0.00 in    
Sea Level Pressure  
Sea Level Pressure 30.00 in    
Wind  
Wind Speed 5 mph (South)    
Max Wind Speed 12 mph    
Max Gust Speed 15 mph    
Visibility 10 miles    
Events      
T = Trace of Precipitation, MM = Missing Value Source: NWS Daily Summary

Daily Weather History Graph

Daily Weather History Graph

Search for Another Location

Airport:

Trip Planner

Search our weather history database for the weather conditions in past years. The results will help you decide how hot, cold, wet, or windy it might be!

Date:

Astronomy

Jun. 03, 2014 Rise Set
Actual Time 5:56 AM CDT 8:15 PM CDT
Civil Twilight 5:27 AM CDT 8:44 PM CDT
Nautical Twilight 4:52 AM CDT 9:19 PM CDT
Astronomical Twilight 4:13 AM CDT 9:58 PM CDT
Moon 11:10 AM CDT (6/3) No Moon Set
Length of Visible Light 15h 16m
Length of Day
14h 18m
Waxing Crescent, 30% of the Moon is Illuminated
Jun 3
Waxing Crescent
Jun 5
First Quarter
Jun 12
Full
Jun 19
Last Quarter
Jun 27
New

Hourly Weather History & Observations

Time (CDT) Temp. Heat Index Dew Point Humidity Pressure Visibility Wind Dir Wind Speed Gust Speed Precip Events Conditions
12:53 AM 73.0 °F - 70.0 °F 90% 30.04 in 10.0 mi SSE 4.6 mph - N/A   Clear
1:53 AM 73.0 °F - 70.0 °F 90% 30.03 in 10.0 mi South 6.9 mph - N/A   Clear
2:53 AM 72.0 °F - 70.0 °F 93% 30.03 in 10.0 mi South 4.6 mph - N/A   Clear
3:53 AM 72.0 °F - 69.1 °F 91% 30.03 in 10.0 mi SSW 4.6 mph - N/A   Clear
4:53 AM 70.0 °F - 68.0 °F 93% 30.03 in 8.0 mi SE 4.6 mph - N/A   Clear
5:53 AM 70.0 °F - 68.0 °F 93% 30.05 in 6.0 mi Calm Calm - N/A   Clear
6:53 AM 71.1 °F - 69.1 °F 93% 30.06 in 7.0 mi Calm Calm - N/A   Clear
7:53 AM 73.9 °F - 71.1 °F 91% 30.06 in 8.0 mi SSW 4.6 mph - N/A   Clear
8:53 AM 78.1 °F - 71.1 °F 79% 30.06 in 10.0 mi SSW 6.9 mph - N/A   Clear
9:53 AM 80.1 °F 83.6 °F 71.1 °F 74% 30.06 in 10.0 mi Variable 6.9 mph - N/A   Clear
10:53 AM 82.0 °F 86.3 °F 71.1 °F 69% 30.06 in 10.0 mi Calm Calm - N/A   Clear
11:53 AM 82.9 °F 87.0 °F 70.0 °F 65% 30.05 in 10.0 mi Calm Calm - N/A   Scattered Clouds
12:53 PM 84.0 °F 87.8 °F 69.1 °F 61% 30.04 in 10.0 mi Calm Calm - N/A   Mostly Cloudy
1:53 PM 87.1 °F 92.0 °F 70.0 °F 57% 30.01 in 10.0 mi South 6.9 mph - N/A   Scattered Clouds
2:53 PM 87.1 °F 91.3 °F 69.1 °F 55% 30.00 in 10.0 mi Variable 3.5 mph - N/A   Scattered Clouds
3:53 PM 89.1 °F 94.1 °F 70.0 °F 53% 29.98 in 10.0 mi SE 8.1 mph - N/A   Scattered Clouds
4:53 PM 89.1 °F 94.1 °F 70.0 °F 53% 29.96 in 10.0 mi South 9.2 mph - N/A   Scattered Clouds
5:53 PM 88.0 °F 92.9 °F 70.0 °F 55% 29.94 in 10.0 mi South 9.2 mph - N/A   Scattered Clouds
6:53 PM 87.1 °F 92.0 °F 70.0 °F 57% 29.93 in 10.0 mi South 8.1 mph - N/A   Clear
7:53 PM 82.9 °F 88.0 °F 72.0 °F 69% 29.94 in 10.0 mi SSE 5.8 mph - N/A   Clear
8:53 PM 79.0 °F - 72.0 °F 79% 29.94 in 10.0 mi South 4.6 mph - N/A   Clear
9:53 PM 77.0 °F - 71.6 °F 83% 29.94 in 10.0 mi South 5.8 mph - N/A   Clear
10:53 PM 75.9 °F - 72.0 °F 87% 29.94 in 10.0 mi South 5.8 mph - N/A   Clear
11:53 PM 75.2 °F - 71.6 °F 89% 29.93 in 10.0 mi South 6.9 mph - N/A   Clear